Terug naar catalogus

GOES 7

ActiefWeerGEO
NORAD 17561·PAYLOAD·🇺🇸 United States

Gelanceerd Feb 26, 1987 vanaf Cape Canaveral Space Force Station

Loading…

TLE

VersSource: Space-Track

Epoch: Sep 12, 2026, 00:04 UTC

1 17561U 87022A   26255.00340043 -.00000275  00000-0  00000-0 0  9998
2 17561  12.8490 337.0294 0001677  26.9667 319.0228  0.99906972127827

Volg GOES 7 in realtime met AllMySat

Download on the App Store